Aérodrome :
LOGIN :

S'inscrire | Disclaimer

   EN    FR    IT 

 










Légende :    VFR   VFR Marginal   IFR   IFR Intensif   IFR Très Intensif
Visi : 
Plafond : 
>= 8 km
>= 3000ft
5 à 8 km
1000 à 3000 ft
1500m à 5 km
500 à 1000 ft
800 à 1500m
200 à 500 ft
< 800m
< 200 ft
Symboles :   Orages  Brouillard  Fortes neiges  Fortes précipitations  Vent > 20 kt
SIGMETs :   Divers  Orages  Givrage  Turbulence  Onde Orograph.  Cendres Volcan.






- Altitude de l'aérodrome : 1460 ft


LSMA - Alpnach

DERNIER METAR :
  • 281120Z AUTO 06010KT 9999NDV NCD 12/03 Q1016 RMK

METARs EXPIRÉS :
  • 281050Z AUTO 06008KT 9999NDV NCD 12/03 Q1016 RMK
  • 281020Z AUTO 04007KT 010V080 9999NDV NCD 11/02 Q1017 RMK
  • 280950Z AUTO 03004KT 310V080 9999NDV NCD 10/02 Q1017 RMK
  • 280920Z AUTO 03004KT 350V070 9999NDV NCD 08/03 Q1017 RMK
  • 280850Z AUTO VRB02KT 9999NDV NCD 08/02 Q1017 RMK

Prévision TAF périmée.



MET'MAP, la Météo Aéronautique d'un coup d'oeil ! - Copyright ORBIFLY Décembre 2007 - Disclaimer

ORBIFLY MET'MAP TEAM :

Programmation & Développement : Alexandra Zaïnal
Sur une idée originale de : Baudouin d'Aumeries
Assistance à la programmation : Marc-Olivier Méhu
Soutien technique & logistique : Manuel Goepfert

Contact : metmap@orbifly.com




SOURCES & CREDITS :

   NOAA